Observations for Trim Patrick St
| Time | AQI | Temp °C | Hum % | Pres Pa | CO μg/m³ | H₂S μg/m³ | NO μg/m³ | NO₂ μg/m³ | O₃ μg/m³ | SO₂ μg/m³ | PM1 μg/m³ | PM2.5 μg/m³ | PM10 μg/m³ |
|---|---|---|---|---|---|---|---|---|---|---|---|---|---|
| Saturday 8 August 2026 | |||||||||||||
| 18:41 | 3 | 30.9 | 34 | 69,316 | 0 | 6.84 | 0.79 | 19.1 | 59.18 | 16 | 2 | 8.21 | 9.03 |
| 18:40 | 3 | 31 | 35 | 69,328 | 0 | 10.86 | 0.71 | 34.12 | 59.81 | 14.82 | 2 | 8.18 | 9 |
| 18:39 | 3 | 30.9 | 35 | 69,312 | 0 | 16.37 | 0.6 | 17.97 | 66.7 | 17.07 | 2.86 | 8.15 | 8.96 |
| 18:38 | 3 | 30.8 | 35 | 69,324 | 0 | 20.99 | 0.61 | 35.83 | 67.62 | 17.07 | 2.86 | 8.98 | 9.87 |
| 18:37 | 3 | 30.7 | 35 | 69,306 | 0 | 19.1 | 0.58 | 24.15 | 75.94 | 16.85 | 2.86 | 8.15 | 8.97 |
| 18:36 | 3 | 30.5 | 35 | 69,290 | 0 | 17.2 | 0.59 | 35.73 | 63.73 | 15.57 | 2.86 | 8.15 | 8.97 |
| 18:35 | 3 | 30.3 | 35 | 69,294 | 0 | 18.13 | 0.64 | 20.62 | 72.17 | 16.81 | 2 | 8.14 | 8.96 |
| 18:34 | 3 | 30.2 | 36 | 69,298 | 0 | 25.27 | 0.67 | 27.27 | 81.85 | 17.61 | 2 | 7.33 | 8.06 |
| 18:33 | 3 | 30.1 | 35 | 69,284 | 0 | 19.86 | 0.65 | 32.8 | 74.96 | 16.34 | 2.86 | 8.95 | 9.84 |
| 18:32 | 3 | 30.1 | 35 | 69,288 | 0 | 18.73 | 0.7 | 15.14 | 84.92 | 17.68 | 2 | 7.36 | 8.1 |
| 18:31 | 3 | 30.1 | 35 | 69,265 | 0 | 17.9 | 0.68 | 26.13 | 69.24 | 16.26 | 2.86 | 8.96 | 9.85 |
| 18:30 | 3 | 30.1 | 35 | 69,298 | 0 | 16.94 | 0.68 | 16.68 | 81.46 | 17.19 | 2 | 8.15 | 8.96 |
| 18:29 | 3 | 30.1 | 35 | 69,284 | 0 | 19.08 | 0.69 | 20.69 | 88.03 | 17.54 | 2 | 7.35 | 8.09 |
| 18:28 | 3 | 30.2 | 35 | 69,292 | 0 | 16.05 | 0.72 | 18.6 | 63.26 | 16.6 | 2 | 7.36 | 8.1 |
| 18:27 | 3 | 30.2 | 35 | 69,278 | 0 | 22.51 | 0.68 | 24.61 | 79.73 | 17.58 | 2 | 7.35 | 8.09 |
| 18:26 | 3 | 30.2 | 35 | 69,252 | 0 | 18.86 | 0.7 | 17.93 | 91.06 | 17.78 | 2.86 | 8.96 | 9.86 |
| 18:25 | 3 | 30.3 | 34 | 69,278 | 0 | 18.67 | 0.68 | 16.71 | 68.35 | 17.27 | 2.86 | 8.19 | 9.01 |
| 18:24 | 3 | 30.4 | 35 | 69,284 | 0 | 20.3 | 0.63 | 18.06 | 81.06 | 18.15 | 2.86 | 8.96 | 9.85 |
| 18:23 | 3 | 30.4 | 35 | 69,290 | 0 | 21.61 | 0.63 | 23.2 | 89.63 | 17.87 | 2 | 7.37 | 8.1 |
| 18:22 | 3 | 30.4 | 35 | 69,300 | 0 | 18.12 | 0.62 | 14.6 | 79.55 | 17.77 | 2 | 7.37 | 8.11 |